Location: Mapua
(41.2500°S, 173.1000°E)
Time: 13:57:46
(UTC+12:00)

ISS - Visible Passes

Search period start: 25 June 2017 00:00
Search period end: 05 July 2017 00:00
Orbit: 401 x 408 km, 51.6° (Epoch: 25 June)

Date Brightness Start Highest point End Pass type
(mag) Time Alt. Az. Time Alt. Az. Time Alt. Az.
27 Jun -1.3 19:10:47 10° N 19:11:36 15° N 19:11:36 15° N visible
28 Jun -1.6 18:19:53 10° NNE 18:21:32 13° NE 18:21:54 13° ENE visible
28 Jun -0.5 19:54:17 10° WNW 19:54:35 12° WNW 19:54:35 12° WNW visible
29 Jun -3.2 19:02:06 10° NW 19:04:47 49° N 19:04:47 49° N visible
30 Jun -2.7 18:10:16 10° NNW 18:13:14 30° NE 18:14:55 19° E visible
30 Jun -0.8 19:46:35 10° W 19:47:35 17° W 19:47:35 17° W visible
01 Jul -3.5 18:54:02 10° WNW 18:57:20 58° SSW 18:57:38 55° S visible
02 Jul -3.8 18:01:44 10° NW 18:05:02 76° NE 18:07:36 16° ESE visible
02 Jul -1.0 19:39:09 10° WSW 19:40:16 16° WSW 19:40:16 16° WSW visible
03 Jul -2.4 18:46:22 10° W 18:49:22 30° SSW 18:50:10 27° S visible
04 Jul -3.1 17:53:42 10° WNW 17:56:57 48° SSW 18:00:02 11° SE visible
04 Jul -0.9 19:31:50 10° SW 19:32:41 13° SW 19:32:41 13° SW visible
